Tracking 18840 objects as of 18-November-2017
HD Live streaming from Space Station
objects crossing your sky now

FENGYUN 1C DEB

Track FENGYUN 1C DEB now!
10-day predictions


NORAD ID: 31533
Int'l Code: 1999-025BXY
Perigee: 770.7 km
Apogee: 869.8 km
Inclination: 99.0 °
Period: 101.1 minutes
Semi major axis: 7191 km
RCS: 0.0093 m2 (small)
Launch date: May 10, 1999
Source: People's Republic of China (PRC)
Launch site: Taiyaun Space Center, China (TSC)

Note: This is SATELLITE DEBRIS
aabbcc
Your satellite tracking list
Your tracking list is empty




NASA's NSSDC Master Catalog

Two Line Element Set (TLE):
1 31533U 99025BXY 17321.57656991 +.00000189 +00000-0 +10041-3 0  9999
2 31533 098.9610 083.5243 0068896 179.7258 180.3969 14.23632990241575
Source of the keplerian elements: AFSPC